Location: Bottom School (historical)
(37.9078°N, 89.3593°W)
Time: 20:34:56
(UTC+00:00)

PAYLOAD B - Pass Details

Date: 08 December 2021
Orbit: 848 x 872 km, 99.1° (Epoch: 17 January)

Event Time Altitude Azimuth Distance (km) Brightness Sun altitude
Rises 23:46:25 0° 161° (SSE) 3,446 7.4 -13.2°
Reaches altitude 10° 23:48:48 10° 161° (SSE) 2,512 6.7 -13.6°
Maximum altitude 23:54:23 81° 75° (ENE) 885 4.2 -14.7°
Drops below altitude 10° 00:00:00 10° 348° (NNW) 2,520 6.6 -15.7°
Sets 00:02:23 0° 348° (NNW) 3,459 7.3 -16.2°
